This is the latest recevied weather packets stored in our database for station/object DB5ZQ. If no packets are shown the sender has not sent any weather packets the latest 1 day(s).
| Time | Temp. | Humidity | Pressure | Rain* | Wind** | Luminosity | Snow |
|---|---|---|---|---|---|---|---|
| 1777996082 | 18.89° C | 73% | 1003.4 hPa | 0.25 mm | 0 m/s | - | - |
| 1777995782 | 19.44° C | 71% | 1003.4 hPa | 0.25 mm | 0 m/s | - | - |
| 1777995481 | 18.89° C | 71% | 1003.4 hPa | 0.25 mm | 0.45 m/s, 149° | - | - |
| 1777995181 | 19.44° C | 70% | 1003.4 hPa | 0.25 mm | 0.89 m/s, 49° | - | - |
| 1777994881 | 19.44° C | 69% | 1003.3 hPa | 0 mm | 0 m/s | - | - |
| 1777994580 | 19.44° C | 69% | 1003.3 hPa | 0 mm | 0 m/s | - | - |
| 1777994280 | 19.44° C | 69% | 1003.2 hPa | 0 mm | 0 m/s | - | - |
| 1777993980 | 19.44° C | 68% | 1003.2 hPa | 0 mm | 0 m/s | - | - |
| 1777993680 | 20° C | 68% | 1003.2 hPa | 0 mm | 0 m/s | - | - |
| 1777993379 | 20° C | 69% | 1003.2 hPa | 0 mm | 0.45 m/s, 142° | - | - |
| 1777993079 | 19.44° C | 69% | 1003.2 hPa | 0 mm | 0.45 m/s, 47° | - | - |
| 1777992779 | 19.44° C | 69% | 1003.1 hPa | 0 mm | 0.45 m/s, 106° | - | - |
| 1777992478 | 20° C | 68% | 1003.2 hPa | 0 mm | 0.45 m/s, 40° | - | - |
| 1777992178 | 19.44° C | 68% | 1003.2 hPa | 0 mm | 1.79 m/s, 125° | - | - |
| 1777991878 | 20° C | 68% | 1003.2 hPa | 0 mm | 0.45 m/s, 102° | - | - |
| 1777991578 | 19.44° C | 68% | 1003.2 hPa | 0 mm | 1.34 m/s, 92° | - | - |
| 1777991277 | 19.44° C | 67% | 1003.2 hPa | 0 mm | 0.45 m/s, 113° | - | - |
| 1777990977 | 19.44° C | 67% | 1003.2 hPa | 0 mm | 0.45 m/s, 99° | - | - |
| 1777990677 | 20° C | 65% | 1003.2 hPa | 0 mm | 0.89 m/s, 109° | - | - |
| 1777990376 | 20° C | 65% | 1003.3 hPa | 0 mm | 0 m/s | - | - |
| 1777990076 | 20.56° C | 62% | 1003.2 hPa | 0 mm | 2.24 m/s, 39° | - | - |
| 1777989776 | 21.11° C | 59% | 1003.2 hPa | 0 mm | 0 m/s | - | - |
| 1777989476 | 21.11° C | 57% | 1003.1 hPa | 0 mm | 0.45 m/s, 15° | - | - |
| 1777989175 | 21.67° C | 55% | 1003 hPa | 0 mm | 1.34 m/s, 18° | - | - |
| 1777988875 | 22.22° C | 54% | 1002.9 hPa | 0 mm | 1.34 m/s, 123° | - | - |
* Rain latest hour (hover to see other rain measurements)
** Current wind speed in m/s (hover to see current wind gust speed)